Notices

What's New in latest Release from April 7th, 2021:

- Updated Glossary, including Speed of Maximum Gust, and Total Hourly Precipitation

- Updated national and regional climate services offices contacts and prices information

- Addition of station inventory lists for 1981-2010, 1971-2000, and 1961-1990 Normals.

If you haven't already, please take our survey and provide feedback about our website: https://eccc.sondage-survey.ca/f/LanguageSelection.aspx?s=442ca660-fcf1-47c0-95a9-59707d6fd709

Hourly Data Report for November 06, 2020

SHEARWATER RCS
NOVA SCOTIA
Current Station Operator: ECCC - MSC

44°37'47.000" N
63°30'48.000" W
24.00 m
8205092
71264
AAW

Download Data

Hourly Data (November 2020)
Hourly Data Report for November 6, 2020
TIME
LST
Temp Definition
°C
Dew Point Definition
°C
Rel Hum Definition
%
Precip. Amount Definition
mm

Wind Dir Definition
10's deg

Wind Spd Definition
km/h
Visibility Definition
km
Stn Press Definition
kPa
Hmdx Definition


Wind Chill Definition


Weather Definition


00:00 12.6 9.6 82 0.0 21 22   102.44     LegendNANA
01:00 12.6 9.5 81 0.0 21 22   102.40     LegendNANA
02:00 12.5 9.8 84 0.0 21 20   102.36     LegendNANA
03:00 12.8 10.4 85 0.0 21 20   102.31     LegendNANA
04:00 12.9 10.6 86 0.0 22 21   102.25     LegendNANA
05:00 13.0 10.8 87 0.0 21 19   102.24     LegendNANA
06:00 12.9 10.9 88 0.0 22 22   102.19     LegendNANA
07:00 12.9 11.0 88 0.0 21 23   102.14     LegendNANA
08:00 13.0 11.0 88 0.0 21 23   102.14     LegendNANA
09:00 13.3 11.1 86 0.0 22 22   102.12     LegendNANA
10:00 13.8 11.2 84 0.0 22 23   102.08     LegendNANA
11:00 14.3 11.1 81 0.0 23 23   102.02     LegendNANA
12:00 15.2 11.4 78 0.0 22 25   101.92     LegendNANA
13:00 15.6 11.9 78 0.0 22 17   101.81     LegendNANA
14:00 15.4 12.0 80 0.0 23 18   101.74     LegendNANA
15:00 14.7 12.1 84 0.0 23 15   101.72     LegendNANA
16:00 13.9 12.0 88 0.0 22 22   101.66     LegendNANA
17:00 13.4 11.8 90 0.0 23 14   101.62     LegendNANA
18:00 13.0 11.5 90 0.0 22 18   101.63     LegendNANA
19:00 12.8 11.3 91 0.0 22 19   101.58     LegendNANA
20:00 12.6 11.6 94 0.0 22 19   101.53     LegendNANA
21:00 12.5 11.7 95 0.0 23 23   101.49     LegendNANA
22:00 12.0 11.2 95 0.0 23 18   101.43     LegendNANA
23:00 12.0 11.1 94 0.0 22 21   101.34     LegendNANA

Notes on Data Quality.

Legend

  • E = Estimated
  • M = Missing
  • NA = Not Available*
  • [empty] = Indicates an unobserved value
Date modified: